GW4066 Weather Reports


time (UTC)temp
C
wind
direction
speed
KPH
gust
KPH
rain 1hr
cm
rain 24hr
cm
rain mn
cm
humidity
%
barometer
mb
20260505101825 15 240 1.6 8.0 0.00 0.00 0.00 70 1019.6
20260505100904 15 247 1.6 8.0 0.00 0.00 0.00 70 1019.5
20260505100003 15 243 0.0 4.8 0.00 0.00 0.00 70 1019.5
20260505095404 15 240 0.0 4.8 0.00 0.00 0.00 70 1019.7
20260505094504 15 247 1.6 4.8 0.00 0.00 0.00 70 1019.6
20260505093604 15 238 1.6 6.4 0.00 0.00 0.00 70 1019.5
20260505092704 15 227 1.6 6.4 0.00 0.00 0.00 69 1019.5
20260505091805 15 238 1.6 6.4 0.00 0.00 0.00 69 1019.5
20260505090904 15 235 1.6 6.4 0.00 0.00 0.00 68 1019.6
20260505090005 15 238 1.6 8.0 0.00 0.00 0.00 68 1019.2
20260505085404 15 243 1.6 4.8 0.00 0.00 0.00 68 1019.3
20260505084505 15 223 1.6 11.3 0.00 0.00 0.00 68 1019.2
20260505083604 15 293 1.6 4.8 0.00 0.00 0.00 67 1019.2
20260505082704 15 295 1.6 9.7 0.00 0.00 0.00 66 1019.1
20260505081805 15 293 0.0 4.8 0.00 0.00 0.00 66 1018.9
20260505080904 15 294 1.6 6.4 0.00 0.00 0.00 65 1018.8
20260505080026 15 298 1.6 6.4 0.00 0.00 0.00 65 1018.6
20260505075405 16 292 1.6 6.4 0.00 0.00 0.00 65 1018.7
20260505074504 16 290 3.2 11.3 0.00 0.00 0.00 65 1018.5
20260505073604 16 303 0.0 4.8 0.00 0.00 0.00 65 1018.4
20260505072726 16 312 0.0 3.2 0.00 0.00 0.00 66 1018.4
20260505071804 16 308 1.6 6.4 0.00 0.00 0.00 66 1018.4
20260505070905 16 302 1.6 6.4 0.00 0.00 0.00 65 1018.2
20260505070025 16 292 3.2 11.3 0.00 0.00 0.00 65 1018.2
20260505065405 16 287 3.2 14.5 0.00 0.00 0.00 65 1018.0
20260505064504 16 279 1.6 11.3 0.00 0.00 0.00 64 1018.0
20260505063604 16 287 1.6 6.4 0.00 0.00 0.00 64 1018.1
20260505062704 16 290 3.2 11.3 0.00 0.00 0.00 64 1018.0
20260505061805 16 301 3.2 11.3 0.00 0.00 0.00 65 1018.0
20260505060904 16 292 3.2 9.7 0.00 0.00 0.00 65 1017.9
20260505060025 16 272 3.2 11.3 0.00 0.00 0.00 65 1017.9
20260505055404 16 268 3.2 11.3 0.00 0.00 0.00 65 1018.0
20260505054525 16 242 3.2 12.9 0.00 0.00 0.00 64 1017.8
20260505053604 16 266 1.6 8.0 0.00 0.00 0.00 65 1017.6
20260505052725 16 241 3.2 9.7 0.00 0.00 0.00 65 1017.5
20260505051804 16 228 3.2 16.1 0.00 0.00 0.00 65 1017.5
20260505050904 16 256 3.2 12.9 0.00 0.00 0.00 66 1017.4
20260505040925 16 216 4.8 11.3 0.00 0.00 0.00 65 1016.9
20260505040005 16 214 3.2 11.3 0.00 0.00 0.00 64 1017.0
20260505035404 16 224 3.2 14.5 0.00 0.00 0.00 64 1016.9
20260505034525 16 242 4.8 17.7 0.00 0.00 0.00 63 1017.0
20260505033604 16 230 8.0 17.7 0.00 0.00 0.00 63 1017.0
20260505032704 16 220 8.0 16.1 0.00 0.00 0.00 62 1016.9
20260505031804 16 213 9.7 17.7 0.00 0.00 0.00 62 1017.0
20260505030904 17 204 8.0 19.3 0.00 0.00 0.00 61 1016.9
20260505030004 17 195 9.7 22.5 0.00 0.00 0.00 60 1016.9
20260505025404 17 195 8.0 22.5 0.00 0.00 0.00 59 1016.8
20260505024504 17 224 4.8 12.9 0.00 0.00 0.00 60 1016.9
20260505023605 16 258 3.2 11.3 0.00 0.00 0.00 62 1017.0
20260505022705 16 237 6.4 14.5 0.00 0.00 0.00 61 1017.1
20260505021825 17 232 6.4 14.5 0.00 0.00 0.00 60 1017.2
20260505020905 17 231 6.4 17.7 0.00 0.00 0.00 59 1017.2
20260505020005 17 216 8.0 17.7 0.00 0.00 0.00 60 1017.2
20260505015404 17 204 8.0 22.5 0.00 0.00 0.00 61 1017.3
20260505014504 16 239 4.8 16.1 0.00 0.00 0.00 62 1017.4
20260505013604 16 231 6.4 19.3 0.00 0.00 0.00 64 1017.4
20260505012725 15 228 6.4 17.7 0.00 0.00 0.00 65 1017.5
20260505011805 15 233 6.4 20.9 0.00 0.00 0.00 65 1017.6
20260505010904 15 233 8.0 24.1 0.00 0.00 0.00 64 1017.6
20260505010005 16 270 8.0 22.5 0.00 0.00 0.00 64 1017.4
20260505005404 15 275 8.0 20.9 0.00 0.00 0.00 63 1017.3
20260505004504 15 276 8.0 25.7 0.00 0.00 0.00 65 1017.5
20260505003604 15 243 8.0 24.1 0.00 0.00 0.00 66 1017.4
20260505002704 15 222 9.7 25.7 0.00 0.00 0.00 68 1017.2
20260505001825 15 237 8.0 25.7 0.00 0.00 0.00 68 1017.2
20260505000905 15 240 6.4 20.9 0.00 0.00 0.00 68 1017.0
20260505000025 15 226 8.0 24.1 0.00 0.00 0.00 70 1017.0
20260504235405 15 244 8.0 20.9 0.00 0.00 0.00 70 1016.9
20260504234504 15 234 9.7 22.5 0.00 0.00 0.00 71 1017.0
20260504233604 15 261 6.4 14.5 0.00 0.00 0.00 72 1016.9
20260504232704 14 233 4.8 17.7 0.00 0.00 0.00 74 1016.9
20260504231804 14 245 6.4 25.7 0.00 0.00 0.00 74 1016.7
20260504230904 14 242 6.4 16.1 0.00 0.00 0.00 76 1016.5
20260504230005 13 265 3.2 11.3 0.00 0.00 0.00 79 1016.5
20260504225404 13 255 4.8 16.1 0.00 0.00 0.00 79 1016.5
20260504224526 13 251 3.2 17.7 0.00 0.00 0.00 81 1016.5
20260504223604 13 269 1.6 12.9 0.00 0.00 0.00 84 1016.4
20260504222704 12 279 3.2 8.0 0.00 0.00 0.00 85 1016.0
20260504221804 12 296 3.2 9.7 0.00 0.00 0.00 86 1016.0
20260504220904 12 292 1.6 11.3 0.00 0.00 0.00 87 1015.9
20260504220004 12 299 1.6 6.4 0.00 0.00 0.00 88 1015.8
20260504214504 11 302 1.6 6.4 0.00 0.00 0.00 88 1015.5
20260504213604 11 293 0.0 3.2 0.00 0.00 0.00 88 1015.5
20260504212726 11 293 0.0 4.8 0.00 0.00 0.00 88 1015.3
20260504211804 11 287 1.6 6.4 0.00 0.00 0.00 88 1015.1
20260504210904 11 269 1.6 8.0 0.00 0.00 0.00 88 1014.9
20260504210005 11 268 0.0 8.0 0.00 0.00 0.00 88 1014.9
20260504205425 11 242 0.0 8.0 0.00 0.00 0.00 88 1014.8
20260504204504 12 270 1.6 6.4 0.00 0.00 0.00 89 1014.8
20260504203625 12 273 0.0 6.4 0.00 0.00 0.00 89 1014.5
20260504202725 12 255 1.6 8.0 0.00 0.00 0.00 89 1014.4
20260504201805 12 278 1.6 11.3 0.00 0.00 0.00 89 1014.3
20260504200904 12 287 1.6 8.0 0.00 0.00 0.00 89 1014.1
20260504200005 12 290 3.2 11.3 0.00 0.00 0.00 89 1013.9
20260504195425 12 281 3.2 11.3 0.00 0.00 0.00 89 1013.8
20260504194505 12 283 1.6 9.7 0.00 0.00 0.00 89 1013.7
20260504193604 12 297 1.6 9.7 0.00 0.00 0.00 88 1013.6
20260504192705 12 304 1.6 11.3 0.00 0.00 0.00 88 1013.5
20260504191825 12 302 1.6 11.3 0.00 0.00 0.00 88 1013.4
20260504190925 12 290 1.6 6.4 0.00 0.00 0.00 88 1013.4
20260504190004 12 288 1.6 6.4 0.00 0.00 0.00 87 1013.2
20260504185425 12 284 1.6 6.4 0.00 0.00 0.00 87 1013.1
20260504184504 12 281 3.2 11.3 0.00 0.00 0.00 86 1013.0
20260504183604 12 289 3.2 11.3 0.00 0.00 0.00 86 1012.9
20260504182703 12 292 3.2 14.5 0.00 0.00 0.00 85 1012.9
20260504181804 12 285 1.6 14.5 0.00 0.00 0.00 85 1012.8
20260504180904 12 290 4.8 14.5 0.00 0.00 0.00 85 1012.5
20260504180025 12 289 4.8 16.1 0.00 0.00 0.00 84 1012.5
20260504175405 12 291 4.8 12.9 0.00 0.00 0.00 84 1012.4
20260504174504 12 291 4.8 16.1 0.00 0.00 0.00 84 1012.4
20260504173605 12 294 3.2 12.9 0.00 0.00 0.00 84 1012.3
20260504172725 12 291 3.2 11.3 0.00 0.00 0.00 84 1012.2
20260504171804 12 289 3.2 11.3 0.00 0.00 0.00 83 1012.1
20260504170904 12 292 3.2 14.5 0.00 0.00 0.00 83 1012.2
20260504150904 12 338 3.2 8.0 0.00 0.00 0.00 81 1011.7
20260504140904 13 303 6.4 16.1 0.00 0.00 0.00 81 1011.2